Theta_e
345 340 347 349 349 345 346 347 348 350 350 348 347 350 352 351 350 350 351 339 349 350 348 349 344 343 347 350 351 351 352 353 349 337 333 328 327 326
344 338 340 346 350 350 347 348 347 348 349 349 351 352 351 350 349 349 337 340 351 350 349 349 347 344 350 349 351 350 350 347 339 334 329 328 328 328
343 348 347 344 346 351 345 345 347 348 348 348 349 351 351 349 349 350 343 340 349 349 352 349 348 345 351 354 351 349 349 348 338 334 331 330 329 327
340 347 349 348 338 347 350 350 350 350 351 349 348 347 343 350 351 352 351 350 351 352 351 349 350 349 347 354 356 351 350 349 343 339 338 333 330 327
348 349 347 346 345 339 338 347 346 348 348 351 351 354 353 350 350 352 350 352 350 350 350 350 351 349 348 350 355 352 350 349 349 345 344 337 332 328
352 349 351 351 349 347 346 345 347 349 352 354 352 349 350 351 350 350 352 352 346 351 348 350 352 349 346 347 355 352 355 351 350 348 346 343 334 330
350 353 350 352 352 351 350 348 349 347 349 348 349 350 350 352 355 355 354 351 351 349 345 349 351 351 345 347 350 357 355 354 350 348 347 345 336 332
347 347 353 351 353 352 350 342 350 352 352 352 354 354 353 351 351 352 351 350 347 336 347 342 339 344 347 349 351 357 355 352 350 349 347 346 339 334
351 350 348 351 352 351 348 345 339 333 341 342 341 332 329 328 333 333 331 333 336 334 341 348 345 348 348 350 350 355 357 354 351 351 348 347 343 335
347 354 353 350 347 349 355 355 354 352 346 341 340 335 333 335 339 339 337 339 345 340 342 350 344 344 347 348 346 346 358 354 349 349 350 348 345 337
342 340 340 349 346 339 341 348 354 355 353 350 345 345 344 344 346 347 346 346 344 336 332 338 341 341 341 345 348 351 356 353 352 351 351 349 345 339
347 344 342 341 338 343 352 344 340 337 345 350 351 349 347 345 345 348 344 345 345 344 337 335 338 343 341 342 343 344 345 352 355 353 352 350 345 341
351 350 348 345 345 345 344 339 335 331 333 337 340 340 342 342 341 339 338 343 344 343 342 346 342 339 343 345 348 345 345 351 354 352 350 348 348 343
352 351 351 353 351 350 348 346 345 344 342 341 345 349 350 348 347 345 341 341 344 345 345 346 350 348 345 344 340 339 341 348 353 354 350 350 348 347
352 351 350 348 350 353 350 349 348 347 346 344 345 347 347 348 347 341 335 339 338 337 339 343 343 345 348 347 343 341 341 346 348 353 353 350 349 350
352 354 353 352 351 348 348 349 350 350 350 349 349 350 350 350 350 348 345 338 334 335 338 342 346 349 349 348 347 347 348 349 353 352 351 352 352 349
352 352 353 354 354 354 351 349 350 350 350 351 351 351 351 350 350 349 346 342 340 342 344 343 343 345 346 348 349 347 346 352 353 352 352 351 350 349
345 351 352 354 354 354 354 353 351 351 352 353 352 351 351 351 349 349 348 346 345 344 344 343 343 347 346 346 346 346 347 348 348 349 350 350 353 351
325 341 348 348 350 351 354 355 356 356 355 354 354 354 353 352 351 351 349 347 350 351 348 346 344 348 349 351 351 350 350 352 352 350 349 348 350 348
321 324 337 347 349 350 353 351 356 357 357 357 355 354 353 352 354 355 354 352 351 350 348 347 348 350 348 348 348 349 351 352 351 349 350 348 348 350
327 330 331 334 340 345 350 352 350 351 357 358 357 356 355 355 354 354 353 352 352 352 352 351 350 350 349 348 351 353 354 353 352 351 348 348 348 347
332 329 327 332 345 348 346 349 352 351 352 353 354 353 353 353 353 353 353 351 352 352 352 352 353 351 350 351 352 353 352 351 348 351 349 347 347 348
336 336 338 345 342 345 351 352 352 352 353 352 351 353 353 352 351 352 352 351 351 351 351 351 351 351 351 350 350 349 350 351 349 350 348 347 347 345
Wind_Speed
8 14 7 3 4 3 4 5 7 10 10 10 4 8 5 6 13 15 17 14 13 17 20 22 24 25 19 18 16 16 12 9 11 10 12 12 13 15
12 15 13 10 2 4 5 4 7 8 9 4 5 6 10 15 16 16 18 9 15 15 19 20 21 23 23 19 17 15 14 12 10 12 12 13 13 15
14 10 14 14 11 6 12 10 10 9 12 13 12 6 12 16 17 18 17 11 13 15 15 19 20 21 20 20 19 16 14 13 11 12 13 14 15 17
17 18 12 13 18 15 12 10 9 13 13 18 18 19 18 11 17 19 15 11 10 14 14 20 20 21 21 18 18 18 15 14 12 13 14 14 17 18
11 12 13 16 17 19 18 15 13 12 17 15 16 12 16 15 14 14 18 12 13 14 17 19 19 20 21 20 18 17 16 16 15 14 15 16 17 18
14 13 14 14 15 16 17 20 19 21 18 15 18 19 13 12 15 18 15 12 12 13 14 20 16 21 22 21 16 15 20 20 17 15 15 16 17 18
18 17 16 18 19 18 19 17 16 18 17 16 17 18 19 17 12 14 16 17 16 17 15 15 18 21 22 21 18 14 20 22 19 16 15 16 16 17
18 19 18 21 20 21 22 21 23 21 22 23 23 22 20 18 17 17 19 21 28 20 17 22 22 19 21 20 19 16 18 23 18 17 15 15 15 15
24 24 22 19 19 24 22 19 19 23 28 27 29 28 26 23 24 25 25 25 25 24 19 16 15 12 11 19 19 21 18 20 21 19 18 15 14 14
31 26 24 25 23 25 20 26 26 25 25 26 29 27 23 21 20 21 22 23 24 24 16 26 23 21 18 19 22 24 21 19 20 20 18 16 14 13
37 35 35 35 34 30 28 32 28 30 30 28 22 25 25 23 22 23 25 26 31 31 25 22 22 21 20 19 22 18 17 21 19 18 19 18 15 13
39 40 39 38 37 40 35 38 39 39 37 34 30 30 29 28 27 26 27 29 29 32 23 21 20 22 24 23 23 24 27 24 20 19 16 18 16 13
40 38 37 37 35 33 34 41 47 45 43 41 40 40 37 36 35 30 27 29 31 31 24 21 19 25 24 22 18 20 24 22 21 20 20 20 16 14
39 40 35 30 36 33 29 31 31 30 32 37 38 37 35 33 29 30 30 31 32 33 29 30 27 26 30 35 36 31 27 25 24 24 24 22 17 15
39 40 39 40 36 29 30 33 36 36 34 38 39 41 40 40 40 38 37 34 37 38 34 29 32 30 27 26 25 24 25 28 28 24 25 27 23 20
40 39 37 36 36 43 47 46 43 38 37 41 43 44 44 42 42 40 39 40 38 39 36 32 30 27 30 31 30 29 24 27 24 24 25 26 28 26
33 31 37 38 38 38 43 46 47 45 44 44 43 43 41 39 38 34 33 35 35 33 30 32 32 32 30 32 32 31 30 25 23 28 32 30 27 28
25 28 28 27 30 33 33 33 37 42 43 39 37 33 32 31 27 30 29 31 33 33 33 33 32 28 31 34 32 34 33 29 28 24 31 33 28 27
29 32 37 41 45 37 31 31 30 31 29 31 33 35 34 31 28 24 22 31 30 28 30 30 31 27 30 34 34 31 29 27 25 25 26 27 29 26
31 34 38 46 47 40 37 34 29 30 32 34 35 37 32 30 28 27 27 28 30 29 31 33 29 30 34 38 37 34 30 30 28 30 29 26 27 28
32 33 33 35 37 39 41 39 38 37 33 30 24 28 29 28 30 32 32 31 29 28 29 30 29 29 33 36 34 33 32 34 36 34 31 28 32 33
30 33 35 35 32 35 32 38 40 39 44 40 42 39 39 37 33 31 32 31 29 29 31 33 30 30 35 33 32 35 37 36 35 30 30 32 32 33
26 29 30 27 28 32 36 33 33 39 38 38 38 38 40 39 38 37 35 35 30 30 32 35 35 34 35 35 34 37 37 36 32 33 33 31 28 30
Wind_Direction
227 216 207 257 270 256 315 340 345 341 320 205 223 231 268 273 308 305 323 332 346 344 351 356 4 4 3 4 7 11 9 7 357 4 357 359 355 352
218 214 229 243 198 228 238 287 296 312 322 357 331 237 286 304 317 309 320 342 350 334 341 347 355 358 7 6 4 10 9 7 6 3 3 1 359 357
203 228 238 250 233 213 224 245 274 284 285 288 286 300 302 309 322 330 334 341 324 333 334 343 344 348 352 8 6 1 7 9 4 7 9 4 360 360
216 224 232 254 242 237 242 220 254 250 277 278 274 277 286 310 310 311 335 354 358 318 327 338 332 340 339 345 359 355 354 5 2 1 4 6 4 1
243 237 240 246 243 236 245 257 257 264 266 280 289 295 281 277 284 303 324 335 337 329 321 319 318 333 330 334 345 356 351 355 359 354 357 2 3 3
229 237 244 254 258 261 251 249 242 247 255 256 266 278 292 302 298 294 294 283 308 311 307 314 310 319 321 321 327 341 350 344 347 348 347 357 359 1
236 236 245 248 256 263 266 262 260 260 265 273 275 281 285 279 275 275 291 301 288 288 293 301 304 305 310 312 310 323 338 337 335 343 343 348 355 357
254 249 241 250 255 257 265 265 248 256 252 251 257 263 265 279 285 287 288 291 294 306 289 287 290 291 303 307 300 311 326 341 328 331 333 338 345 351
256 258 255 250 259 264 271 274 269 256 256 262 266 269 274 277 282 286 287 290 291 302 311 315 335 318 310 303 316 304 308 333 335 324 328 327 335 342
248 253 259 259 247 256 267 266 269 273 269 264 270 280 285 291 292 295 293 292 294 298 307 299 310 306 308 295 305 304 293 313 328 329 325 320 326 335
251 251 250 254 262 260 256 257 262 269 276 277 278 283 286 286 285 287 286 289 290 289 286 276 283 293 295 297 301 309 291 298 308 327 329 324 319 322
252 254 256 257 256 254 259 264 263 263 263 266 267 270 274 276 279 277 284 282 287 293 305 281 270 286 292 287 288 293 297 292 288 306 313 318 307 311
254 254 259 263 264 265 262 259 262 270 271 271 272 275 274 274 275 276 277 274 275 278 301 291 294 274 276 283 283 288 299 292 290 297 312 312 297 299
260 256 250 261 266 271 270 268 269 270 268 267 267 264 263 263 271 273 273 276 276 282 292 281 274 277 283 281 276 278 285 288 287 294 301 304 297 297
262 267 269 258 246 250 253 258 260 261 261 260 264 269 271 275 274 267 254 257 270 276 278 272 276 285 286 287 284 286 272 281 283 282 294 303 303 297
257 262 266 267 261 255 254 256 257 255 253 257 262 270 273 272 272 274 267 265 263 265 269 274 278 276 278 278 280 280 282 265 275 281 286 291 286 283
263 260 257 262 265 262 256 253 257 259 257 261 263 268 271 274 266 268 267 260 258 264 268 267 265 268 273 280 274 272 275 269 262 266 274 277 275 276
273 262 262 260 264 268 271 265 259 256 256 261 267 269 270 269 276 258 259 259 259 261 263 265 263 262 270 271 270 272 275 271 276 278 275 274 270 269
274 269 262 264 264 260 256 252 258 260 261 258 256 256 262 269 273 272 263 251 255 262 263 265 261 259 265 267 275 277 274 275 274 277 275 272 270 272
272 269 264 262 260 257 252 253 251 255 254 255 259 259 256 255 254 259 262 258 259 262 263 259 261 262 258 263 271 272 271 273 270 276 277 273 265 250
266 268 271 272 269 261 253 254 256 250 250 249 242 244 244 248 253 253 257 255 256 257 262 264 266 273 269 265 266 264 263 270 279 276 276 266 260 258
275 269 267 258 265 272 270 255 255 258 251 247 248 247 250 254 254 256 254 257 256 257 261 264 266 265 260 264 263 267 272 277 279 271 274 273 253 242
270 272 265 260 267 262 267 271 259 254 253 252 257 254 254 257 255 258 260 261 265 269 270 273 280 273 266 266 268 272 272 271 268 268 279 280 263 243